sim
Sign-in with your pilot id or email,
or register
Callsign
Passwort

Schedule Details

Flight Number: RYR4282 (2)
Departure: Dublin Airport (EIDW) at 18:35
Arrival: Bratislava M. R. Stefanik Airport (LZIB) at 21:20
Route: Ryanair Passenger Schedule. Enter filed route here before submitting Pirep.

Weather Information
Getting current METAR information for EIDW 310530Z 13007KT 080V160 CAVOK 15/09 Q1021 NOSIG
Getting current METAR information for LZIB 310530Z 30008KT 9999 -RA FEW047 BKN077 OVC100 12/05 Q1015 NOSIG

Schedule Frequency

Route Map